Location: *
(43.9900°N, 3.4811°E)
Time: 08:39:00
(UTC+00:00)

COSMOS 2455 - Pass Details

Date: 25 August 2019
Orbit: 900 x 910 km, 67.1° (Epoch: 22 September)

Event Time Altitude Azimuth Distance (km) Brightness Sun altitude
Rises 23:40:34 0° 329° (NNW) 3,549 6.7 -35.4°
Reaches altitude 10° 23:43:06 10° 330° (NNW) 2,603 5.9 -35.4°
Enters shadow 23:46:59 42° 334° (NNW) 1,270 3.8 -35.4°
